COSMOS 1375 DEB, 17807

Orbit data source: Space-Track

COSMOS 1375 DEB, 17807 is space debris in LEO originally from a launch on Sun, 06 Jun 1982 UTC launched from the Plesetsk Missile And Space Complex (PKMTR). Debris objects in space refer to the collection of defunct objects orbiting the Earth. Examples of debris include non-operational satellites, rocket bodies, and fragments generated from explosions, collisions, or faulty payload assembly.

Loading next visibility...
Identifier
17807, 1982-055AZ
Orbit
LEO
Country
Flag of CISCIS
Related business
Manufacturer
Unknown
Mission
Spacecraft
Bus & Motor
Unknown
Mass
Unknown
Launch date (UTC)
1982-06-06 (44 years ago)
Launch vehicle
Unknown
Launch site
Plesetsk Missile And Space Complex (PKMTR)
Object type
Payload
Rocket body
Debris
Shape & HBR
Unknown shape, 0.1 m
Radar Cross Section
Medium (>0.1 m² and <1 m²)

Expand to show TLE details & history
Last TLE update: 3 days ago

TLE from 3 days ago
0 COSMOS 1375 DEB
1 17807U 82055AZ  26170.21735021  .00000502  00000-0  53062-3 0  9996
2 17807  65.8308  97.9682 0063697 311.3855 167.3377 13.82466287 39747
Epoch: 2026-06-19T05:12Z
TLE epoch observation values (Epoch: 2026-06-19T05:12:59.058Z)
Latitude
53.1385°
Longitude
-104.27209°
Altitude
1,008.508 km
Speed
7.33 km/s
True Right ascension
16h 05m 41s
True Declination
52° 58' 44"
Sunlit
Object was in daylight at epoch
Visualization orbit readout
Latitude
Unknown
Longitude
Unknown
Altitude
Unknown
Speed
Unknown
Apparent Right ascension
Unknown
Apparent Declination
Unknown
Sunlit
N/A
Visualization observer readout
Local Sidereal Time
00:39:45
Azimuth
Unknown
Elevation
Unknown
Doppler factor
Unknown
Orbital elements
Apogee altitude
1,000.365 km
Perigee altitude
906.963 km
Semi-major axis
7,331.801 km
Eccentricity
0.00637
Inclination
65.8308°
RAAN
97.9682°
Arg. of periapsis
311.3855°
True anomaly
167.49647°
Mean anomaly
167.3377°
Eccentric anomaly
167.41721°
Mean motion
3.45722 °/min
Orbital period
104.13 mins
BSTAR
0.00053062
Loading maneuver chart data...
Computing Atmospheric mass density...
Loading historical data...
Loading historical data...
Loading historical data...
Loading historical data...
Loading historical data...
Loading historical data...
Loading historical data...

Documentation

Showing up to 5 results
|